Location: Gródek
(50.7014°N, 19.7086°E)
Time: 05:50:20
(UTC+00:00)

Daily predictions for brighter satellites

Satellite Brightness Start Highest point End
(mag) Time Altitude Azimuth Time Altitude Azimuth Time Altitude Azimuth
Cosmos 1470 4.4 00:00:01 10° NNE 00:02:45 23° ENE 00:03:02 22° ENE
Cosmos 1992 Rocket 3.8 00:05:01 72° SSW 00:05:35 89° SE 00:10:51 10° NNE
Cosmos 1726 Rocket 3.6 00:07:11 64° NW 00:07:11 64° NW 00:11:05 10° N
PSLV R/B 4.1 00:05:10 10° N 00:08:26 60° NNW 00:08:26 60° NNW
Meteor 1-26 Rocket 4.1 00:09:29 58° SSE 00:10:29 76° E 00:15:54 10° NNE
Cosmos 1536 3.1 00:09:11 10° N 00:12:17 57° NNE 00:12:17 57° NNE
ATLAS 2AS CENTAUR R/B 3.5 00:09:45 21° W 00:14:05 46° NNW 00:20:36 10° NE
IDEFIX/ARIANE 42P 3.0 00:10:19 10° NNE 00:15:24 55° E 00:16:41 43° SSE
Cosmos 1953 Rocket 4.0 00:18:26 10° NNW 00:22:18 47° WNW 00:22:18 47° WNW
Nimbus 7 Rocket 4.5 00:18:04 10° NNE 00:24:10 78° ESE 00:26:11 45° S
USA 234 3.6 00:18:30 10° E 00:24:58 66° NNE 00:31:28 10° WNW
Cosmos 1980 Rocket 3.5 00:20:45 10° NW 00:24:20 24° W 00:24:20 24° W
Cosmos 1766 4.2 00:22:23 10° NNW 00:24:17 32° NNW 00:24:17 32° NNW
Cosmos 1707 3.7 00:31:24 32° N 00:31:24 32° N 00:33:07 10° N
Cosmos 44 Rocket 3.3 00:29:47 61° SSW 00:30:41 85° SE 00:35:54 10° NE
ADEOS II 4.5 00:27:40 10° NE 00:30:55 16° E 00:34:07 10° SE
COSMOS 2406 3.2 00:32:29 48° S 00:34:08 75° ESE 00:39:54 10° NNE
H-2A R/B 4.4 00:31:48 10° ESE 00:34:40 22° ENE 00:37:31 10° NNE
MSX 3.8 00:28:56 10° NNE 00:34:43 77° ESE 00:36:45 42° S
Cosmos 1975 3.4 00:32:04 10° N 00:35:36 46° ENE 00:36:20 39° ESE
Cosmos 2369 4.3 00:31:38 10° NW 00:36:37 36° WSW 00:36:37 36° WSW
ADEOS Rocket 3.9 00:29:35 10° NNE 00:37:04 60° E 00:41:54 25° S
Cosmos 1634 Rocket 4.0 00:35:56 44° SW 00:37:50 66° WNW 00:44:00 10° N
SL-08 ROCKET BODY 4.3 00:31:52 10° NNW 00:37:51 74° W 00:40:00 41° S
ALOS 4.3 00:35:01 10° NE 00:38:25 20° E 00:41:29 11° SE
CZ-2D R/B 3.9 00:35:02 10° NE 00:39:21 25° E 00:43:17 12° SE
Cosmos 724 4.3 00:44:49 41° SW 00:47:03 75° NW 00:53:01 10° NE
Cosmos 1607 3.9 00:47:22 41° SW 00:49:43 86° NW 00:56:02 10° NE
Cosmos 1354 Rocket 4.3 00:46:48 10° NNW 00:52:06 68° ENE 00:57:20 10° SSE
Cosmos-2242 3.5 00:52:12 41° W 00:52:28 41° WNW 00:56:27 10° N
Cosmos 2360 Rocket 2.3 00:47:13 10° NNW 00:52:56 78° ENE 00:58:37 10° SSE
Cosmos 1503 Rocket 3.9 00:48:14 10° NNW 00:53:33 87° WSW 00:56:50 23° SSE
Cosmos 2333 Rocket 2.1 00:48:17 10° NW 00:53:56 68° WSW 00:57:05 27° S
FENGYUN 3A 3.6 00:49:02 10° NNE 00:54:30 84° ESE 00:56:43 37° S
USA 281 3.2 00:51:27 30° S 00:54:42 58° WSW 01:01:11 10° NNW
Cosmos 220 Rocket 3.7 00:56:20 61° S 00:56:58 80° ESE 01:01:01 10° NNE
Cosmos 2082 Rocket 3.0 00:59:24 28° W 01:01:49 43° NW 01:07:16 10° NNE
Cosmos 1842 2.9 01:02:44 62° NW 01:02:44 62° NW 01:05:39 10° N
Cosmos 540 Rocket 4.0 01:01:37 28° SSE 01:04:04 51° ESE 01:09:03 10° NNE
Cosmos 2279 Rocket 4.1 01:03:59 35° SW 01:06:34 59° WNW 01:12:45 10° N
Meteor 2-9 Rocket 4.0 01:02:14 10° NNW 01:07:34 73° W 01:10:19 29° S
NPP 3.6 01:02:13 10° NNE 01:07:38 77° WNW 01:09:56 35° SSW
Cosmos 2278 3.7 01:02:02 10° NW 01:07:40 59° WSW 01:11:11 23° S
Cosmos 1486 Rocket 4.2 01:03:13 10° NW 01:08:13 47° WSW 01:09:36 38° SSW
Cosmos 2322 Rocket 2.1 01:02:34 10° NNW 01:08:13 79° WSW 01:13:52 10° SSE
DNEPR-1 R/B 4.5 01:03:05 10° NW 01:08:15 71° NE 01:14:34 10° SE
Resurs 1-4 Rocket 2.9 01:03:22 10° NNE 01:08:29 46° E 01:12:17 17° SSE
Cosmos 2221 2.3 01:07:40 48° SSW 01:08:48 88° WNW 01:12:58 10° N
USA 305 4.0 01:16:13 19° NE 01:16:13 19° NE 01:16:52 10° NE
ACS3 Solar Sail 2.7 01:10:35 10° N 01:15:54 34° WNW 01:18:33 24° WSW
NOSS 3-3 (A) 3.7 01:14:12 34° SW 01:16:40 84° NW 01:23:05 10° NE
Cosmos 1777 Rocket 4.3 01:13:51 10° NW 01:18:51 45° WSW 01:20:41 32° SSW
Cosmos 1766 Rocket 4.4 01:15:12 10° N 01:19:26 48° ENE 01:23:37 10° SSE
Cosmos 2219 Rocket 2.2 01:16:34 10° NNW 01:22:14 81° ENE 01:27:55 10° SSE
SL-16 R/B 2.7 01:17:51 10° NW 01:23:03 37° WSW 01:24:53 30° SW
H-2A R/B 3.1 01:18:16 10° NNE 01:23:09 42° E 01:27:58 11° SSE
Meteor 1-11 Rocket 3.7 01:18:04 10° NNW 01:23:59 81° W 01:29:12 13° S
CZ-4C R/B 2.9 01:22:06 21° W 01:24:51 40° NNW 01:30:25 10° NE
Meteor 1-19 Rocket 4.1 01:22:10 28° SSW 01:25:12 83° WNW 01:30:51 10° NNE
Cosmos 1271 Rocket 2.5 01:27:38 47° SW 01:28:20 60° WNW 01:31:48 10° N
NOAA 11 4.1 01:23:23 10° NNE 01:28:50 81° WNW 01:32:03 25° SSW
USA 267 3.4 01:23:23 10° ENE 01:29:54 62° SE 01:34:01 24° SW
SL-4 R/B 2.2 01:31:34 39° SW 01:31:46 40° SSW 01:35:21 10° SE
Meteor 1-10 Rocket 4.2 01:29:04 23° SSW 01:32:47 86° WNW 01:38:37 10° NNE
NOSS 3-3 (C) 3.8 01:30:27 28° SW 01:33:27 79° NW 01:39:57 10° NE
Cosmos 2266 Rocket 4.1 01:29:22 10° NNW 01:35:17 51° W 01:39:09 21° SSW
Cosmos 1470 3.7 01:33:51 10° NW 01:36:16 24° WNW 01:36:16 24° WNW
Gbstr 26 Del rocket 2.9 01:37:23 33° WSW 01:38:28 42° SSW 01:42:00 10° SE
USA 290 2.3 01:37:48 36° S 01:38:54 67° ESE 01:42:03 10° NNE
Cosmos 2333 4.3 01:43:10 10° NW 01:48:40 53° WSW 01:54:10 10° S
Cosmos 372 Rocket 4.0 01:43:29 10° NNW 01:48:42 87° ENE 01:53:50 10° SSE
DMSP B5D2-2 4.2 01:45:23 16° S 01:49:17 50° W 01:54:22 10° NNW
Cosmos 1655 Rocket 3.9 01:44:16 10° NNW 01:50:31 76° W 01:56:42 10° S
Cosmos 1812 Rocket 4.0 01:49:34 26° SW 01:51:35 43° WNW 01:55:46 10° N
NOSS 3-4 (A) 3.8 01:47:19 10° NW 01:53:58 72° SW 02:01:48 10° SSE
Meteor 2-20 Rocket 4.4 01:49:02 15° SSW 01:54:15 80° W 02:00:13 10° N
NOSS 3-4 (C) 3.8 01:47:51 10° NW 01:54:31 72° SW 02:02:23 10° SSE
IDEFIX/ARIANE 42P 3.8 01:50:16 10° N 01:54:34 27° WNW 01:57:22 17° WSW
Envisat 3.0 01:52:32 10° N 01:57:35 67° WNW 02:01:23 18° SSW
Meteor 2-4 Rocket 3.8 01:52:16 10° S 01:57:36 75° E 02:02:58 10° NNE
ISS -1.7 01:56:14 14° S 01:57:48 19° SE 02:00:16 10° E
Aureole 1 Rocket 3.2 01:55:53 10° NNW 01:59:56 57° WSW 02:05:00 10° S
JB-3 4.0 01:56:30 10° S 02:00:06 81° WSW 02:03:44 10° NNW
Cosmos 2084 Rocket 3.9 02:00:13 10° WNW 02:04:04 35° SW 02:07:54 10° S
Iridium 4 Rocket 3.8 02:03:00 19° SW 02:06:03 43° W 02:10:55 10° N
Cosmos 1461 3.7 02:03:16 14° S 02:06:10 38° ESE 02:09:39 10° NE
ATLAS 2AS CENTAUR R/B 4.4 02:00:50 10° WNW 02:06:36 28° N 02:12:19 10° NE
USA 234 3.3 02:01:37 10° SE 02:08:04 61° SW 02:14:34 10° WNW
H-2A R/B 2.8 02:06:25 19° SSW 02:08:28 34° W 02:11:46 10° NNW
Meteor 1-27 Rocket 3.9 02:03:31 13° SSW 02:08:49 71° WNW 02:14:45 10° N
Cosmos 1975 4.4 02:08:01 10° NW 02:10:13 15° W 02:10:36 15° W
ADEOS II 2.1 02:05:53 10° NNE 02:11:09 85° WNW 02:16:23 10° SSW
Cosmos 1842 Rocket 3.6 02:09:33 10° S 02:13:50 77° E 02:18:09 10° NNE
Cosmos 2297 Rocket 4.4 02:11:16 10° SSE 02:15:31 22° ESE 02:19:45 10° NE
ALOS 2.4 02:11:13 10° N 02:15:41 56° WNW 02:19:31 14° SW
Cosmos 1238 Rocket 2.5 02:15:06 21° SW 02:16:41 42° WNW 02:19:35 10° N
Cosmos 1763 Rocket 4.1 02:13:16 16° WSW 02:17:06 43° WNW 02:22:09 10° NNE
CZ-2D R/B 2.3 02:14:30 10° N 02:19:39 57° WNW 02:24:33 12° SW
SL-16 R/B 2.7 02:14:32 10° SSE 02:20:49 83° ENE 02:27:07 10° NNW
COSMOS 2428 2.9 02:15:31 10° NNW 02:21:17 80° ENE 02:26:59 10° SSE
ADEOS Rocket 4.2 02:15:24 10° N 02:22:13 40° WNW 02:28:49 12° WSW
Cosmos 841 Rocket 3.7 02:19:13 10° SSW 02:24:19 70° ESE 02:29:30 10° NNE
Sich 1 2.9 02:21:13 10° N 02:25:24 89° NNE 02:29:33 10° S
Okean 3 Rocket 3.6 02:21:08 10° N 02:25:36 87° E 02:30:03 10° S
Cosmos 1758 3.6 02:25:29 10° N 02:29:06 63° ENE 02:32:42 10° SSE
Cosmos 1898 Rocket 3.5 02:24:38 10° NNW 02:29:43 59° WSW 02:34:46 10° S
Cosmos 1937 Rocket 3.4 02:29:07 10° NNW 02:34:19 72° WSW 02:39:26 10° SSE
Cosmos 1805 Rocket 4.0 02:30:15 10° N 02:34:40 67° ENE 02:39:00 10° SSE
Cosmos 2360 Rocket 3.4 02:32:12 10° NW 02:36:16 21° W 02:40:20 10° SSW
Cosmos 2333 Rocket 3.9 02:35:05 10° WNW 02:37:08 12° W 02:39:00 10° WSW
Alouette 2 Rocket 4.3 02:34:26 10° NW 02:37:52 26° W 02:40:53 10° SSW
USA 305 2.5 02:39:38 10° NW 02:40:40 14° N 02:41:18 10° NNE
Meteor 1-18 Rocket 4.2 02:37:13 10° SSW 02:42:47 86° WNW 02:48:23 10° NNE
Meteor 2-10 Rocket 3.6 02:38:37 10° NNW 02:43:35 54° W 02:48:42 10° S
H-2A R/B 2.1 02:40:39 10° NNE 02:44:43 75° ESE 02:48:40 10° S
Cosmos 2082 Rocket 4.4 02:44:26 10° WNW 02:47:30 14° NNW 02:50:35 10° N
Resurs 1-4 Rocket 3.0 02:43:25 10° N 02:48:07 33° WNW 02:52:46 10° WSW
Cosmos 1553 Rocket 4.1 02:42:04 10° SSW 02:48:14 68° WNW 02:54:33 10° N
In-Cosmos 22 4.2 02:43:52 10° S 02:49:09 83° E 02:54:35 10° NNE
USA 276 2.8 02:50:08 11° SW 02:50:28 11° SSW 02:51:07 10° S
Cosmos 2322 Rocket 3.8 02:48:24 10° WNW 02:51:19 14° W 02:54:14 10° SW
BREEZE-M DEB (TANK) 3.9 02:50:52 10° W 02:54:10 55° SSW 03:04:55 10° ESE
Cosmos 1709 Rocket 4.2 02:49:46 10° N 02:55:55 78° E 03:02:02 10° SSE
CZ-2C R/B 3.1 02:51:11 10° NNE 02:56:01 57° E 03:00:40 10° S
Cosmos 1340 Rocket 3.6 02:52:52 10° N 02:56:34 54° ENE 03:00:15 10° SSE
